Regional Weather Roundup
Issued by NWS

Home | Current Version | Previous Version | Graphics & Text | Print | Product List | Glossary On
Versions: 1 2 3 4 5 6 7 8 9 10 11 12 13 14 15 16 17 18 19 20 21 22 23 24 25 26 27 28 29 30 31 32 33 34 35 36 37 38 39 40 41 42 43 44 45 46 47 48 49 50
000
ASUS43 KFSD 292302
RWRSD

WEATHER ROUNDUP FOR SOUTH DAKOTA
NATIONAL WEATHER SERVICE SIOUX FALLS SD
600 PM CDT MON SEP 29 2014

NOTE: "FAIR" INDICATES FEW OR NO CLOUDS BELOW 12,000 FEET WITH NO
SIGNIFICANT WEATHER AND/OR OBSTRUCTIONS TO VISIBILITY.


SDZ001>005-009-010-012>017-300000-
NORTHWEST AND NORTH CENTRAL SOUTH DAKOTA

CITY           SKY/WX    TMP DP  RH WIND       PRES   REMARKS
BUFFALO          N/A     51  49  92 SE14      29.88F
FAITH            N/A     54  53  97 E13       29.95F
MOBRIDGE       CLOUDY    62  51  67 E8        29.97F
$$

SDZ012>016-024>037-041>051-057-063-072>074-300000-
SOUTHWEST AND SOUTH CENTRAL SOUTH DAKOTA

CITY           SKY/WX    TMP DP  RH WIND       PRES   REMARKS
RAPID CTY ARPT CLOUDY    51  49  92 E6        29.94F
PIERRE         CLOUDY    66  57  72 SE14      29.93F
CUSTER         CLOUDY    51  50  96 E3        29.96F FOG
ELLSWORTH AFB  CLOUDY    52  52 100 SE7       29.94F
PHILIP         CLOUDY    56  55  97 E12       29.92F
PINE RIDGE     CLOUDY    60  57  89 NE7       29.89F
WINNER         MOCLDY    66  59  78 E10       29.92F
$$

SDZ004>011-016>023-039-040-300000-
NORTHEAST SOUTH DAKOTA

CITY           SKY/WX    TMP DP  RH WIND       PRES   REMARKS
ABERDEEN       MOSUNNY   62  50  64 E17       30.03F
WATERTOWN      MOSUNNY   59  51  75 E13       30.03F
SISSETON         N/A     59  50  72 SE10      30.06F
$$

SDZ017-020-022-023-036>040-048>070-300000-
SOUTHEAST SOUTH DAKOTA

CITY           SKY/WX    TMP DP  RH WIND       PRES   REMARKS
SIOUX FALLS    MOSUNNY   67  57  70 E16       30.00F
HURON          MOSUNNY   68  55  63 E13       29.96F
CHAMBERLAIN    MOSUNNY   70  59  69 SE10G16   29.94S
MITCHELL       SUNNY     73  60  63 E14       29.96F
YANKTON        SUNNY     73  63  68 E12       29.95S
$$

ABBREVIATIONS USED IN REMARKS
   TC - TEMPERATURE IN CELSIUS
  WCI - WIND CHILL INDEX
   HX - HEAT INDEX
  VSB - VISIBILITY




USA.gov is the U.S. government's official web portal to all federal, state and local government web resources and services.